Regional Weather Roundup
Issued by NWS

Home | Current Version | Previous Version | Graphics & Text | Print | Product List | Glossary On
Versions: 1 2 3 4 5 6 7 8 9 10 11 12 13 14 15 16 17 18 19 20 21 22 23 24 25 26 27 28 29 30 31 32 33 34 35 36 37 38 39 40 41 42 43 44 45 46 47 48 49 50
000
ASUS43 KMKX 270434
RWRWI

WISCONSIN REGIONAL WEATHER ROUNDUP
NATIONAL WEATHER SERVICE MILWAUKEE/SULLIVAN WI
1200 AM CDT WED MAY 27 2015

NOTE: "FAIR" INDICATES FEW OR NO CLOUDS BELOW 12,000 FEET WITH NO
SIGNIFICANT WEATHER AND/OR OBSTRUCTIONS TO VISIBILITY.

WIZ001-002-006>008-014>016-023>028-270600-
NORTHWEST WISCONSIN

CITY           SKY/WX    TMP DP  RH WIND       PRES   REMARKS
SUPERIOR ARPT  CLOUDY    51  50  98 CALM      29.79S
ASHLAND        LGT RAIN  52  52 100 CALM      29.78S
HAYWARD        LGT RAIN  54  52  93 N3        29.77R
SIREN          CLOUDY    55  54  97 N3        29.80R
CUMBERLAND     DRIZZLE   54  54 100 NW7       29.78R
RICE LAKE      RAIN      55  53  93 NW5       29.79R
CHETEK         DRIZZLE   55  55  98 NW5       29.77R
LADYSMITH      DRIZZLE   55  54  96 NW9       29.76R
EAU CLAIRE     CLOUDY    57  56  96 W7        29.76R
MENOMONIE      CLOUDY    58  58  99 W6        29.78R
NEW RICHMOND   CLOUDY    56  56 100 W3        29.81R
OSCEOLA        CLOUDY    56  56 100 NW5       29.83R
$$

WIZ003>005-009-010-017-018-270600-
NORTH CENTRAL WISCONSIN

CITY           SKY/WX    TMP DP  RH WIND       PRES   REMARKS
MANITOWISH WTR DRIZZLE   54  54 100 N8        29.71F
ARBOR VITAE    DRIZZLE   57  55  95 N10       29.69S
WOODRUFF       DRIZZLE   57  55  95 N10       29.69S
RHINELANDER    CLOUDY    59  57  93 N5        29.67F
EAGLE RIVER    LGT RAIN  57  57 100 N8        29.68S
LAND O LAKES   RAIN      57  56  99 N6        29.70F
PHILLIPS       DRIZZLE   55  55 100 NW6       29.71S
TOMAHAWK       CLOUDY    58  57  96 NW7       29.68S
MEDFORD        RAIN      58  57  97 NW9       29.69R
MERRILL        DRIZZLE   61  61 100 N5        29.66R
$$

WIZ029-030-035-036-043>047-270600-
CENTRAL WISCONSIN

CITY           SKY/WX    TMP DP  RH WIND       PRES   REMARKS
WAUSAU         CLOUDY    62  61  96 N7        29.61F
MOSINEE        CLOUDY    61  61 100 N8        29.62F
MARSHFIELD     HVY RAIN  59  57  93 NW20G28   29.67R FOG
STEVENS POINT  RAIN      59  59  99 S6        29.62S
WAUPACA        CLOUDY    63  62  97 S15       29.64S FOG
WAUTOMA        CLOUDY    62  62 100 SW16G24   29.68R FOG
WISC RAPIDS    LGT RAIN  61  58  90 W20G26    29.65R
CAMP DOUGLAS   MOCLDY   N/A N/A N/A W16         N/A
$$

WIZ011>013-019>022-031-037>040-048>050-270600-
NORTHEAST WISCONSIN

CITY           SKY/WX    TMP DP  RH WIND       PRES   REMARKS
ANTIGO         CLOUDY    60  59  98 N9        29.64S
SHAWANO        CLOUDY    66  64  94 SW5       29.62S
OCONTO         MOCLDY    62  62 100 S5        29.61F
STURGEON BAY   PTCLDY    54  50  87 S10       29.67S
GREEN BAY      CLOUDY    66  59  78 SW14G22   29.65R
MANITOWOC      CLOUDY    66  59  78 SW24G31   29.69R
APPLETON       CLOUDY    64  57  77 SW18G24   29.67R
CLINTONVILLE   CLOUDY    63  59  88 SW16      29.63R
OSHKOSH        CLOUDY    64  57  78 SW15G28   29.68R
$$

WIZ032>034-041-042-053>061-270600-
SOUTHWEST WISCONSIN

CITY           SKY/WX    TMP DP  RH WIND       PRES   REMARKS
LA CROSSE      CLOUDY    63  58  83 W8        29.77R
SPARTA         CLOUDY    60  59  95 SW5       29.76S
VIROQUA        CLOUDY    59  59 100 W7        29.79R
BOSCOBEL       CLEAR     61  58  90 CALM      29.79R
PRAIRIE DU CHI PTCLDY    61  57  88 SW5       29.80S
PLATTEVILLE    CLEAR     59  58  96 SW6       29.81S
$$

WIZ056-057-062-063-064-067-068-270600-
SOUTH CENTRAL WISCONSIN

CITY           SKY/WX    TMP DP  RH WIND       PRES   REMARKS
REEDSBURG      CLOUDY    61  58  90 W13       29.76S
BARABOO/DELLS  CLOUDY    61  56  83 SW14      29.77R
LONE ROCK      PTCLDY    62  59  90 SW7       29.79R
MINERAL POINT  CLEAR     61  59  94 W7        29.81S
MADISON        PTCLDY    63  57  81 SW7       29.78R
MIDDLETON      CLEAR     63  58  83 SW9       29.80R
WATERTOWN      PTCLDY   N/A N/A N/A SW13      29.78S
MONROE         DRIZZLE   63  59  88 SW10      29.82S
JANESVILLE     CLOUDY    64  61  88 SW5       29.81S
$$

WIZ051-052-058>065-066-070>072-270600-
SOUTHEAST WISCONSIN

CITY           SKY/WX    TMP DP  RH WIND       PRES   REMARKS
MILWAUKEE      CLEAR     66  57  72 SW12      29.79R
WAUKESHA       PTCLDY    63  55  77 SW10G17   29.80S
MILWAUKEE/TIMM CLEAR     64  55  72 SW14G22   29.79R
RACINE         CLEAR     66  58  75 SW10G17   29.82R
BURLINGTON     MOCLDY    61  58  89 SW5       29.81S
KENOSHA        CLEAR     66  59  78 SW10      29.82R
FOND DU LAC    CLOUDY    64  57  78 SW16G26   29.72R
SHEBOYGAN      MOCLDY    64  57  78 SW18      29.71S
WEST BEND      CLEAR     63  55  77 SW12G23   29.76R
JUNEAU         PTCLDY    61  58  88 SW14      29.77S
$$

LSZ147-162-270600-
LAKE SUPERIOR

STATION/POSITION TIME  TEMP    WIND        PRES    WAVE
                       AIR SEA DIR/SP/G            HT/PER
                 (UTC) (F)     (DEG/KT/KT) (MB)    (FT/S)
W MID LAKE BUOY  0350   44 37  360/  8/  8 1079.0F   0
DEVILS ISLAND    0400   50     290/  4/  5 1086.0R
SAXON HARBOR     0340   47        CALM     1081.0S
$$

LMZ867-665-643>646-270600-
LAKE MICHIGAN

STATION/POSITION TIME  TEMP    WIND        PRES    WAVE
                       AIR SEA DIR/SP/G            HT/PER
                 (UTC) (F)     (DEG/KT/KT) (MB)    (FT/S)
CHAMBERS ISLAND  0300   55     310/  1/  5 1044.0R
N MID LAKE BUOY  0350   47 37  190/ 12/ 16 1051.0F   1/ 4
NORTHPORT PIER   0200   47     140/  7/ 11 1051.0F
SISTER BAY       0303   50     150/ 13/ 19   N/A
KEWAUNEE LAKESHO 0400   49     190/  9/ 11 1039.0S
SHEBOYGAN LAKESH 0400   65     220/ 19/ 22 1064.0R
PORT WASHINGTON  0300   67     240/ 10/ 20 1078.0
ATWATER BUOY     0400   64 45  220/ 14/ 16   N/A
MILWAUKEE LAKESH 0400   67     240/ 16/ 20   N/A
S MID LAKE BUOY  0350   47 38  200/ 14/ 16   N/A     2/ 4
KENOSHA   LAKESH 0400   67     220/  7/ 13   N/A
$$

TC  - TEMPERATURE IN CELSIUS
VSB - VISIBILITY IN STATUTE MILES
WCI - WIND CHILL INDEX
HX  - HEAT INDEX



USA.gov is the U.S. government's official web portal to all federal, state and local government web resources and services.